{"data":{"norad_id":58131,"intl_designator":"2023-162P","name":"STARLINK-30757","alt_names":[],"object_type":"PAYLOAD","status":"ACTIVE","operator":null,"country":"US","launch_date":"2023-10-22","launch_site_code":"AFETR","launch_vehicle":null,"mission":null,"orbit_class":"UNKNOWN","rcs_meters":null,"size_class":null,"mass_kg":null,"dimensions":null,"purposes":["comms"],"wikipedia_slug":null,"has_3d_model":false,"image_url":null,"decayed_at":null,"tle_current":{"epoch":"2026-09-20T22:00:26.565696Z","epoch_age_seconds":104460,"freshness":"FRESH","line1":"1 58131U 23162P   26263.91697414  .00000370  00000+0  22987-4 0  9993","line2":"2 58131  43.0022 106.6193 0001217 272.5632  87.5080 15.27578422162207","mean_motion":15.27578422,"eccentricity":0.0001217,"inclination_deg":43.0022,"raan_deg":106.6193,"arg_perigee_deg":272.5632,"mean_anomaly_deg":87.508,"bstar":2.2987e-5,"rev_number":16220,"period_min":94.266846091912,"perigee_km":482.21881422047,"apogee_km":483.88882806634,"semimajor_km":6861.1908211434,"source":"CELESTRAK","updated_at":"2026-09-21T09:00:33.793142Z"}}}